Location: Newark
(35.0589°N, 135.9944°E)
Time: 22:42:01
(UTC+00:00)

LightSail 2 - Visible Passes

Search period start: 17 September 2019 00:00
Search period end: 27 September 2019 00:00
Orbit: 699 x 732 km, 24.0° (Epoch: 15 September)

Date Brightness Start Highest point End Pass type
(mag) Time Alt. Az. Time Alt. Az. Time Alt. Az.
19 Sep 7.4 19:43:07 10° S 19:45:27 13° SSE 19:47:49 10° SE visible
20 Sep 7.5 18:47:40 10° S 18:48:26 10° SSE 18:49:12 10° SSE visible
21 Sep 7.1 19:33:00 11° SSW 19:36:12 18° SSE 19:39:33 10° SE visible
22 Sep 7.2 18:39:21 15° SSE 18:39:21 15° SSE 18:41:59 10° SE visible
23 Sep 6.8 19:24:41 16° SSW 19:26:56 21° S 19:30:44 10° SE visible
24 Sep 7.1 18:30:58 18° SSE 18:30:58 18° SSE 18:33:23 10° SE visible
24 Sep 6.7 20:10:49 10° SW 20:14:47 23° S 20:18:44 10° SE visible
25 Sep 6.6 19:16:16 21° SSW 19:17:38 23° S 19:21:36 10° SE visible
26 Sep 7.2 18:22:33 17° SE 18:22:33 17° SE 18:24:23 10° SE visible
26 Sep 6.8 20:01:41 10° SW 20:05:27 21° S 20:09:14 10° SE visible
